DW9104 Weather Reports


time (UTC)temp
C
wind
direction
speed
KPH
gust
KPH
rain 1hr
cm
rain 24hr
cm
rain mn
cm
humidity
%
barometer
mb
20260507161904 15 133 0.0 9.7 0.00 0.00 0.00 51 1013.8
20260507161403 15 83 1.6 8.0 0.00 0.00 0.00 52 1013.8
20260507160404 16 99 1.6 8.0 0.00 0.00 0.00 51 1013.8
20260507155904 16 120 1.6 9.7 0.00 0.00 0.00 50 1013.8
20260507154904 16 135 0.0 3.2 0.00 0.00 0.00 50 1013.8
20260507154404 16 39 0.0 4.8 0.00 0.00 0.00 49 1013.8
20260507153404 16 88 0.0 4.8 0.00 0.00 0.00 49 1013.9
20260507152903 16 19 0.0 8.0 0.00 0.00 0.00 50 1013.9
20260507151903 16 115 3.2 11.3 0.00 0.00 0.00 48 1014.0
20260507150904 16 95 0.0 9.7 0.00 0.00 0.00 49 1014.0
20260507150404 16 116 1.6 4.8 0.00 0.00 0.00 49 1014.0
20260507145903 16 132 0.0 4.8 0.00 0.00 0.00 49 1014.0
20260507145404 16 139 1.6 4.8 0.00 0.00 0.00 48 1014.0
20260507144904 16 133 1.6 8.0 0.00 0.00 0.00 49 1014.1
20260507144403 16 127 0.0 3.2 0.00 0.00 0.00 49 1014.1
20260507143904 16 96 3.2 8.0 0.00 0.00 0.00 48 1014.1
20260507142904 15 99 0.0 4.8 0.00 0.00 0.00 49 1014.1
20260507142406 16 105 1.6 12.9 0.00 0.00 0.00 47 1014.2
20260507141905 16 106 1.6 4.8 0.00 0.00 0.00 48 1014.3
20260507141405 16 108 1.6 9.7 0.00 0.00 0.00 47 1014.3
20260507140906 16 97 0.0 3.2 0.00 0.00 0.00 51 1014.4
20260507140406 16 129 1.6 4.8 0.00 0.00 0.00 49 1014.5
20260507135906 16 114 0.0 4.8 0.00 0.00 0.00 50 1014.5
20260507134906 15 119 3.2 9.7 0.00 0.00 0.00 52 1014.6
20260507133905 16 106 3.2 8.0 0.00 0.00 0.00 49 1014.7
20260507132906 15 38 1.6 9.7 0.00 0.00 0.00 49 1014.5
20260507131906 16 139 1.6 9.7 0.00 0.00 0.00 51 1014.7
20260507131406 16 136 3.2 9.7 0.00 0.00 0.00 50 1014.7
20260507130905 16 112 0.0 4.8 0.00 0.00 0.00 48 1014.7
20260507130405 15 46 1.6 4.8 0.00 0.00 0.00 50 1014.9
20260507125906 15 113 1.6 11.3 0.00 0.00 0.00 51 1014.8
20260507125405 15 98 3.2 11.3 0.00 0.00 0.00 50 1014.8
20260507124905 15 105 0.0 3.2 0.00 0.00 0.00 53 1014.9
20260507124406 15 119 1.6 8.0 0.00 0.00 0.00 51 1015.0
20260507123905 15 326 3.2 11.3 0.00 0.00 0.00 51 1015.0
20260507123405 15 78 0.0 8.0 0.00 0.00 0.00 51 1015.0
20260507122406 15 117 1.6 4.8 0.00 0.00 0.00 54 1014.9
20260507121905 15 328 1.6 4.8 0.00 0.00 0.00 54 1015.0
20260507120905 15 115 1.6 4.8 0.00 0.00 0.00 57 1015.1
20260507120405 14 110 1.6 8.0 0.00 0.00 0.00 56 1015.2
20260507115905 14 326 1.6 4.8 0.00 0.00 0.00 57 1015.3
20260507115406 14 73 1.6 4.8 0.00 0.00 0.00 60 1015.3
20260507114905 14 94 0.0 4.8 0.00 0.00 0.00 64 1015.3
20260507113905 13 126 0.0 4.8 0.00 0.00 0.00 64 1015.4
20260507113405 13 11 1.6 9.7 0.00 0.00 0.00 62 1015.5
20260507112906 13 112 1.6 4.8 0.00 0.00 0.00 64 1015.5
20260507112405 13 19 1.6 9.7 0.00 0.00 0.00 66 1015.5
20260507111905 13 105 1.6 4.8 0.00 0.00 0.00 66 1015.6
20260507111406 12 351 1.6 4.8 0.00 0.00 0.00 68 1015.6
20260507110405 12 132 1.6 4.8 0.00 0.00 0.00 67 1015.7
20260507105405 12 130 0.0 4.8 0.00 0.00 0.00 67 1015.9
20260507104906 12 108 1.6 4.8 0.00 0.00 0.00 67 1015.9
20260507104405 12 127 0.0 3.2 0.00 0.00 0.00 68 1015.9
20260507103405 12 131 1.6 4.8 0.00 0.00 0.00 68 1015.9
20260507102907 12 116 1.6 4.8 0.00 0.00 0.00 69 1015.9
20260507102405 11 106 0.0 3.2 0.00 0.00 0.00 70 1016.0
20260507101906 11 122 0.0 3.2 0.00 0.00 0.00 71 1016.0
20260507100905 11 15 0.0 4.8 0.00 0.00 0.00 72 1016.0
20260507100405 11 101 1.6 4.8 0.00 0.00 0.00 73 1016.0
20260507095905 11 113 1.6 4.8 0.00 0.00 0.00 74 1015.9
20260507095405 11 124 0.0 8.0 0.00 0.00 0.00 74 1015.9
20260507094905 11 95 0.0 4.8 0.00 0.00 0.00 75 1015.9
20260507094405 11 356 0.0 4.8 0.00 0.00 0.00 74 1015.9
20260507093905 11 101 0.0 1.6 0.00 0.00 0.00 75 1015.9
20260507093405 11 126 0.0 3.2 0.00 0.00 0.00 76 1015.9
20260507092905 11 117 0.0 3.2 0.00 0.00 0.00 77 1015.9
20260507092405 11 323 0.0 3.2 0.00 0.00 0.00 76 1015.9
20260507091905 10 113 0.0 4.8 0.00 0.00 0.00 78 1016.0
20260507091405 10 179 1.6 4.8 0.00 0.00 0.00 78 1015.9
20260507090905 10 101 0.0 3.2 0.00 0.00 0.00 79 1016.0
20260507090405 10 117 0.0 1.6 0.00 0.00 0.00 81 1016.0
20260507085905 10 91 0.0 1.6 0.00 0.00 0.00 82 1015.9
20260507085406 9 108 0.0 3.2 0.00 0.00 0.00 82 1016.0
20260507084907 9 110 0.0 1.6 0.00 0.00 0.00 82 1016.0
20260507084405 9 105 0.0 1.6 0.00 0.00 0.00 83 1016.1
20260507083905 9 105 0.0 1.6 0.00 0.00 0.00 83 1016.1
20260507083405 9 117 0.0 3.2 0.00 0.00 0.00 84 1016.1
20260507082905 8 101 0.0 3.2 0.00 0.00 0.00 84 1016.1
20260507082405 8 101 0.0 1.6 0.00 0.00 0.00 85 1016.1
20260507081405 8 9 0.0 3.2 0.00 0.00 0.00 86 1016.0
20260507080905 8 354 0.0 3.2 0.00 0.00 0.00 86 1016.0
20260507080405 8 323 0.0 3.2 0.00 0.00 0.00 86 1016.0
20260507075905 8 38 0.0 1.6 0.00 0.00 0.00 87 1016.0
20260507075405 8 65 0.0 1.6 0.00 0.00 0.00 87 1016.0
20260507074905 8 109 0.0 3.2 0.00 0.00 0.00 87 1016.0
20260507074405 8 122 0.0 3.2 0.00 0.00 0.00 87 1016.0
20260507073905 8 94 0.0 1.6 0.00 0.00 0.00 88 1016.1
20260507073405 8 94 0.0 1.6 0.00 0.00 0.00 88 1016.0
20260507072905 7 21 0.0 1.6 0.00 0.00 0.00 88 1016.0
20260507071405 7 140 0.0 0.0 0.00 0.00 0.00 90 1016.0
20260507070905 7 140 0.0 1.6 0.00 0.00 0.00 90 1015.9
20260507070412 7 139 0.0 1.6 0.00 0.00 0.00 90 1015.9
20260507065905 7 344 0.0 1.6 0.00 0.00 0.00 91 1015.9
20260507065405 7 12 0.0 1.6 0.00 0.00 0.00 91 1015.9
20260507064905 7 37 0.0 1.6 0.00 0.00 0.00 91 1015.8
20260507063905 7 15 0.0 1.6 0.00 0.00 0.00 92 1015.8
20260507062905 6 140 0.0 1.6 0.00 0.00 0.00 92 1015.7
20260507062405 6 35 0.0 1.6 0.00 0.00 0.00 93 1015.7
20260507061905 6 24 0.0 1.6 0.00 0.00 0.00 93 1015.7
20260507061405 6 153 0.0 3.2 0.00 0.00 0.00 93 1015.7
20260507060904 6 121 0.0 1.6 0.00 0.00 0.00 93 1015.7
20260507060405 6 140 0.0 1.6 0.00 0.00 0.00 93 1015.7
20260507055405 6 97 0.0 1.6 0.00 0.00 0.00 94 1015.7
20260507054904 6 86 0.0 3.2 0.00 0.00 0.00 94 1015.6
20260507054405 6 121 0.0 1.6 0.00 0.00 0.00 94 1015.6
20260507053905 6 124 0.0 1.6 0.00 0.00 0.00 94 1015.6
20260507053405 6 124 0.0 1.6 0.00 0.00 0.00 94 1015.6
20260507052904 6 65 0.0 1.6 0.00 0.00 0.00 94 1015.6
20260507052405 6 147 0.0 3.2 0.00 0.00 0.00 94 1015.6
20260507051905 6 111 0.0 3.2 0.00 0.00 0.00 94 1015.6
20260507051404 6 345 0.0 1.6 0.00 0.00 0.00 94 1015.6
20260507050904 6 345 0.0 1.6 0.00 0.00 0.00 94 1015.6
20260507050405 6 150 0.0 1.6 0.00 0.00 0.00 94 1015.7
20260507045905 6 129 0.0 0.0 0.00 0.00 0.00 94 1015.7
20260507045405 6 130 0.0 1.6 0.00 0.00 0.00 94 1015.6
20260507044904 6 129 0.0 1.6 0.00 0.00 0.00 94 1015.6
20260507044405 5 74 0.0 1.6 0.00 0.00 0.00 94 1015.5
20260507043905 5 92 0.0 1.6 0.00 0.00 0.00 94 1015.5
20260507042905 5 98 0.0 1.6 0.00 0.00 0.00 94 1015.5
20260507042405 5 98 0.0 1.6 0.00 0.00 0.00 94 1015.5
20260507041905 5 97 0.0 1.6 0.00 0.00 0.00 94 1015.5
20260507041405 5 97 0.0 0.0 0.00 0.00 0.00 94 1015.5
20260507040905 5 117 0.0 1.6 0.00 0.00 0.00 94 1015.5
20260507040405 5 117 0.0 1.6 0.00 0.00 0.00 94 1015.5
20260507035904 5 117 0.0 1.6 0.00 0.00 0.00 94 1015.5
20260507035404 5 85 0.0 1.6 0.00 0.00 0.00 94 1015.5
20260507034904 5 85 0.0 1.6 0.00 0.00 0.00 94 1015.5
20260507034405 5 85 0.0 1.6 0.00 0.00 0.00 94 1015.4
20260507033905 5 85 0.0 1.6 0.00 0.00 0.00 94 1015.4
20260507033405 6 126 0.0 1.6 0.00 0.00 0.00 93 1015.5
20260507032905 6 328 0.0 1.6 0.00 0.00 0.00 93 1015.4
20260507032405 6 328 0.0 1.6 0.00 0.00 0.00 93 1015.4
20260507031905 6 94 0.0 0.0 0.00 0.00 0.00 93 1015.4
20260507031405 6 94 0.0 0.0 0.00 0.00 0.00 93 1015.5
20260507025905 6 125 0.0 1.6 0.00 0.00 0.00 93 1015.6
20260507025405 6 94 0.0 1.6 0.00 0.00 0.00 93 1015.6
20260507024905 6 94 0.0 1.6 0.00 0.00 0.00 93 1015.5
20260507024405 6 94 0.0 1.6 0.00 0.00 0.00 93 1015.5
20260507023904 6 94 0.0 1.6 0.00 0.00 0.00 93 1015.4
20260507023404 6 98 0.0 1.6 0.00 0.00 0.00 92 1015.4
20260507022905 6 98 0.0 1.6 0.00 0.00 0.00 92 1015.4
20260507021905 6 98 0.0 1.6 0.00 0.00 0.00 92 1015.5
20260507021405 6 98 0.0 1.6 0.00 0.00 0.00 92 1015.5
20260507015905 6 137 0.0 0.0 0.00 0.00 0.00 92 1015.4
20260507015404 6 9 0.0 1.6 0.00 0.00 0.00 92 1015.4
20260507014905 6 111 0.0 1.6 0.00 0.00 0.00 92 1015.4
20260507013904 6 111 0.0 1.6 0.00 0.00 0.00 92 1015.5
20260507013405 6 111 0.0 1.6 0.00 0.00 0.00 92 1015.5
20260507012405 6 131 0.0 1.6 0.00 0.00 0.00 91 1015.6
20260507011905 6 28 0.0 1.6 0.00 0.00 0.00 91 1015.6
20260507010405 6 288 0.0 0.0 0.00 0.00 0.00 91 1015.6
20260507005405 6 274 1.6 4.8 0.00 0.00 0.00 91 1015.6
20260507004904 6 134 0.0 0.0 0.00 0.00 0.00 91 1015.6
20260507004404 6 137 0.0 1.6 0.00 0.00 0.00 91 1015.6
20260507003905 6 241 0.0 1.6 0.00 0.00 0.00 91 1015.7
20260507003404 6 28 0.0 3.2 0.00 0.00 0.00 91 1015.6
20260507002905 6 70 0.0 4.8 0.00 0.00 0.00 91 1015.6
20260507002405 6 58 0.0 1.6 0.00 0.00 0.00 90 1015.6
20260507001905 6 43 0.0 1.6 0.00 0.00 0.00 90 1015.6
20260507001405 6 225 0.0 1.6 0.00 0.00 0.00 90 1015.7
20260507000405 6 68 0.0 1.6 0.00 0.00 0.00 90 1015.8
20260506235905 6 51 0.0 1.6 0.00 0.00 0.00 90 1015.8
20260506235405 6 58 0.0 1.6 0.00 0.00 0.00 90 1015.9
20260506234905 6 120 0.0 1.6 0.00 0.00 0.00 90 1015.9
20260506233905 6 88 0.0 1.6 0.00 0.00 0.00 90 1015.9
20260506233405 6 60 0.0 4.8 0.00 0.00 0.00 90 1015.9
20260506232905 6 128 0.0 3.2 0.00 0.00 0.00 90 1015.8
20260506231916 6 142 0.0 1.6 0.00 0.00 0.00 90 1015.8
20260506231415 6 357 0.0 1.6 0.00 0.00 0.00 90 1015.8
20260506230915 6 2 0.0 3.2 0.00 0.00 0.00 90 1015.7
20260506230416 6 81 0.0 1.6 0.00 0.00 0.00 90 1015.7
20260506225916 6 119 0.0 1.6 0.00 0.00 0.00 90 1015.8
20260506225416 6 119 0.0 1.6 0.00 0.00 0.00 90 1015.8
20260506224915 6 120 0.0 1.6 0.00 0.00 0.00 90 1015.7
20260506224415 6 113 0.0 1.6 0.00 0.00 0.00 90 1015.7
20260506223904 6 318 0.0 1.6 0.00 0.00 0.00 90 1015.7
20260506223405 6 318 0.0 1.6 0.00 0.00 0.00 90 1015.7
20260506222905 6 33 0.0 1.6 0.00 0.00 0.00 90 1015.8
20260506221905 6 174 0.0 3.2 0.00 0.00 0.00 89 1015.7
20260506221405 6 110 0.0 1.6 0.00 0.00 0.00 89 1015.6
20260506220404 6 84 0.0 1.6 0.00 0.00 0.00 89 1015.6
20260506215905 6 346 0.0 1.6 0.00 0.00 0.00 88 1015.5
20260506215404 6 41 0.0 3.2 0.00 0.00 0.00 88 1015.5
20260506214905 6 205 0.0 1.6 0.00 0.00 0.00 88 1015.4
20260506214405 7 128 0.0 1.6 0.00 0.00 0.00 87 1015.4
20260506213904 7 61 0.0 4.8 0.00 0.00 0.00 87 1015.3
20260506213405 7 125 0.0 4.8 0.00 0.00 0.00 87 1015.3
20260506212904 7 27 0.0 3.2 0.00 0.00 0.00 86 1015.3
20260506212404 7 105 0.0 1.6 0.00 0.00 0.00 86 1015.3
20260506211905 7 329 0.0 3.2 0.00 0.00 0.00 86 1015.3
20260506211404 7 280 0.0 3.2 0.00 0.00 0.00 85 1015.2
20260506210904 7 190 0.0 4.8 0.00 0.00 0.00 85 1015.2
20260506210404 7 357 0.0 0.0 0.00 0.00 0.00 85 1015.2
20260506205904 7 281 0.0 4.8 0.00 0.00 0.00 84 1015.1
20260506205404 7 78 0.0 1.6 0.00 0.00 0.00 83 1015.1
20260506204908 7 80 0.0 3.2 0.00 0.00 0.00 83 1015.0
20260506204404 7 9 0.0 4.8 0.00 0.00 0.00 82 1015.0
20260506203904 7 69 1.6 4.8 0.00 0.00 0.00 82 1014.9
20260506203404 7 8 0.0 3.2 0.00 0.00 0.00 82 1014.9
20260506202905 7 51 0.0 1.6 0.00 0.00 0.00 81 1014.9
20260506202404 8 283 0.0 1.6 0.00 0.00 0.00 80 1014.9
20260506201904 8 283 1.6 4.8 0.00 0.00 0.00 80 1014.8
20260506200904 8 12 0.0 4.8 0.00 0.00 0.00 79 1014.7
20260506200404 8 346 0.0 3.2 0.00 0.00 0.00 79 1014.6
20260506195904 8 104 0.0 0.0 0.00 0.00 0.00 78 1014.6
20260506195404 8 35 0.0 1.6 0.00 0.00 0.00 77 1014.5
20260506194904 8 126 0.0 1.6 0.00 0.00 0.00 77 1014.4
20260506194405 8 45 0.0 3.2 0.00 0.00 0.00 76 1014.4
20260506193904 8 106 0.0 4.8 0.00 0.00 0.00 75 1014.4
20260506193404 8 297 0.0 4.8 0.00 0.00 0.00 74 1014.3
20260506192905 9 58 0.0 3.2 0.00 0.00 0.00 74 1014.3
20260506192404 9 353 0.0 4.8 0.00 0.00 0.00 74 1014.2
20260506191904 9 83 0.0 3.2 0.00 0.00 0.00 73 1014.2
20260506191405 9 99 0.0 1.6 0.00 0.00 0.00 73 1014.2
20260506190904 10 99 0.0 1.6 0.00 0.00 0.00 73 1014.2
20260506190404 10 100 0.0 4.8 0.00 0.00 0.00 72 1014.1
20260506185904 10 309 0.0 4.8 0.00 0.00 0.00 72 1014.1
20260506185404 10 12 0.0 3.2 0.00 0.00 0.00 71 1014.1
20260506184904 10 56 0.0 4.8 0.00 0.00 0.00 70 1014.2
20260506184404 10 229 0.0 3.2 0.00 0.00 0.00 69 1014.1
20260506183905 10 99 1.6 4.8 0.00 0.00 0.00 69 1014.1
20260506183404 10 329 0.0 3.2 0.00 0.00 0.00 68 1014.0
20260506182905 11 181 0.0 3.2 0.00 0.00 0.00 68 1014.1
20260506182404 11 35 1.6 8.0 0.00 0.00 0.00 68 1014.1
20260506181904 11 330 1.6 4.8 0.00 0.00 0.00 67 1014.1
20260506180904 11 350 1.6 4.8 0.00 0.00 0.00 65 1014.1
20260506180404 11 116 0.0 1.6 0.00 0.00 0.00 63 1014.1
20260506175904 11 40 0.0 3.2 0.00 0.00 0.00 63 1014.0
20260506175404 11 119 1.6 4.8 0.00 0.00 0.00 62 1014.0
20260506174404 11 38 1.6 4.8 0.00 0.00 0.00 61 1013.9
20260506173904 12 222 1.6 4.8 0.00 0.00 0.00 59 1013.9
20260506173404 12 15 0.0 3.2 0.00 0.00 0.00 60 1013.8
20260506172904 12 28 0.0 4.8 0.00 0.00 0.00 59 1013.8
20260506172404 12 9 1.6 4.8 0.00 0.00 0.00 59 1013.7
20260506171904 12 44 0.0 4.8 0.00 0.00 0.00 61 1013.6
20260506171411 12 29 3.2 8.0 0.00 0.00 0.00 59 1013.6
20260506170904 12 93 1.6 4.8 0.00 0.00 0.00 58 1013.6
20260506170404 12 80 1.6 4.8 0.00 0.00 0.00 58 1013.6
20260506165404 12 47 1.6 9.7 0.00 0.00 0.00 58 1013.5
20260506164904 12 12 1.6 4.8 0.00 0.00 0.00 58 1013.5
20260506164404 12 42 0.0 4.8 0.00 0.00 0.00 58 1013.5
20260506163904 12 105 1.6 4.8 0.00 0.00 0.00 59 1013.5
20260506162904 12 4 1.6 4.8 0.00 0.00 0.00 57 1013.6
20260506162404 12 0 3.2 11.3 0.00 0.00 0.00 56 1013.5